Faith, SD

8:07 PM MDT on March 24, 2017 (GMT -0600)
Faith

Weather History for KD07 - October, 2014

Change the Weather History Date:

Sunday, October 5, 2014

  Actual Average Record
Temperature  
Mean Temperature 55 °F 51 °F  
Max Temperature 66 °F 63 °F 84 °F (2010)
Min Temperature 44 °F 39 °F 21 °F (2012)
Degree Days  
Heating Degree Days 10 14  
Month to date heating degree days 81 67  
Since 1 July heating degree days 329 299  
Cooling Degree Days 0 0  
Month to date cooling degree days 0 0  
Year to date cooling degree days 445 634  
Growing Degree Days 4 (Base 50)    
Moisture  
Dew Point 40 °F    
Average Humidity 63    
Maximum Humidity 89    
Minimum Humidity 36    
Precipitation  
Precipitation 0.00 in 0.03 in 0.83 in (1998)
Month to date precipitation 0.00 0.17  
Year to date precipitation 17.65 15.35  
Sea Level Pressure  
Sea Level Pressure 29.79 in    
Wind  
Wind Speed 20 mph (WNW)    
Max Wind Speed 45 mph    
Max Gust Speed 55 mph    
T = Trace of Precipitation, MM = Missing Value Source: NWS Daily Summary

Daily Weather History Graph

Daily Weather History Graph

Search for Another Location

Airport or City:

Trip Planner

Search our weather history database for the weather conditions in past years. The results will help you decide how hot, cold, wet, or windy it might be!

Date:

Astronomy

Oct. 05, 2014 Rise Set
Actual Time 6:51 AM MDT 6:20 PM MDT
Civil Twilight 6:21 AM MDT 6:50 PM MDT
Nautical Twilight 5:47 AM MDT 7:24 PM MDT
Astronomical Twilight 5:13 AM MDT 7:58 PM MDT
Moon 4:46 PM MDT (10/5) 3:22 AM MDT (10/5)
Length of Visible Light 12h 28m
Length of Day
11h 29m
Waxing Gibbous, 90% of the Moon is Illuminated
Oct 5
Waxing Gibbous
Oct 8
Full
Oct 15
Last Quarter
Oct 23
New
Oct 30
First Quarter

Hourly Weather History & Observations

Time (MDT) Temp. Windchill Dew Point Humidity Pressure Visibility Wind Dir Wind Speed Gust Speed Precip Events Conditions
12:56 AM 50.0 °F - 39.9 °F 68% 29.81 in - NW 15.0 mph - N/A   Unknown
1:56 AM 46.9 °F - 39.9 °F 77% 29.81 in - WNW 13.8 mph - N/A   Unknown
2:56 AM 48.0 °F - 41.0 °F 77% 29.81 in - WNW 11.5 mph - N/A   Unknown
3:56 AM 45.0 °F 39.3 °F 39.9 °F 82% 29.81 in - West 11.5 mph - N/A   Unknown
4:56 AM 44.1 °F 38.6 °F 39.9 °F 85% 29.81 in - West 10.4 mph - N/A   Unknown
5:56 AM 45.0 °F 38.2 °F 41.0 °F 86% 29.81 in - West 15.0 mph - N/A   Unknown
6:56 AM 46.9 °F - 42.1 °F 83% 29.81 in - WNW 12.7 mph - N/A   Unknown
7:56 AM 50.0 °F - 43.0 °F 77% 29.80 in - WNW 16.1 mph - N/A   Unknown
8:56 AM 55.9 °F - 44.1 °F 64% 29.78 in - WNW 19.6 mph - N/A   Unknown
9:56 AM 55.9 °F - 45.0 °F 67% 29.79 in - WNW 24.2 mph 29.9 mph N/A   Unknown
10:56 AM 61.0 °F - 44.1 °F 54% 29.78 in - NW 24.2 mph 38.0 mph N/A   Unknown
11:56 AM 64.0 °F - 43.0 °F 46% 29.76 in - NW 27.6 mph 38.0 mph N/A   Unknown
12:56 PM 64.0 °F - 37.0 °F 37% 29.75 in - NW 38.0 mph 55.2 mph N/A   Unknown
1:56 PM 63.0 °F - 41.0 °F 45% 29.76 in - NW 28.8 mph 40.3 mph N/A   Unknown
2:56 PM 64.9 °F - 37.0 °F 36% 29.73 in - NW 41.4 mph 54.1 mph N/A   Unknown
3:56 PM 62.1 °F - 36.0 °F 38% 29.75 in - NNW 35.7 mph 44.9 mph N/A   Unknown
4:56 PM 61.0 °F - 39.0 °F 44% 29.78 in - NNW 25.3 mph 38.0 mph N/A   Unknown
5:56 PM 57.9 °F - 39.9 °F 51% 29.79 in - NW 17.3 mph - N/A   Unknown
6:56 PM 55.9 °F - 39.0 °F 53% 29.79 in - NW 16.1 mph - N/A   Unknown
7:56 PM 54.0 °F - 37.9 °F 55% 29.81 in - WNW 15.0 mph - N/A   Unknown
8:56 PM 51.1 °F - 37.9 °F 61% 29.80 in - WNW 12.7 mph - N/A   Unknown
9:56 PM 50.0 °F - 39.0 °F 66% 29.81 in - WNW 13.8 mph - N/A   Unknown
10:56 PM 50.0 °F - 39.0 °F 66% 29.79 in - WNW 13.8 mph - N/A   Unknown
11:56 PM 48.9 °F - 37.9 °F 66% 29.77 in - WNW 10.4 mph - N/A   Unknown